RESURS P2 (40360 NORAD) Tracking and Keplerian Element Data

This shows tracking and keplerian element data for the satellite.

Feedback or suggestion? Click here.




ElementValue
Catalog40360
NameRESURS P2
Epoch Orbit21802
Epoch Day323.20676785
Epoch Year2018
RAAN52.7358
Inclination97.2661
Eccentricity0.001128
Argument of Perigee89.0542
Mean Anonmoly301.6163
Mean Motion15.32836218
Decay Rate4.82E-06
L11 40360U 14087A 18323.20676785 .00000482 00000-0 17550-4 0 9997
L22 40360 97.2661 52.7358 0011280 89.0542 301.6163 15.32836218218028

Live tracking and technical data element details for RESURS P2 (NORAD 40360). RESURS P2 can be tracked NOW for your location showing map with azimuth and elevation plus other details from your city location.

Track the satellite on the map from your city or location and see movement details for azimuth, elevation, latitude, longitude, range, height, and movement on the map or in text.







IsCatalogInMostPopularTable: catalog: 40360, numindb: 123
Update: records affected: 1



GetName: 40360 RESURS P2

Hit Count: updated at: Mon, 19 Nov 2018 14:01:44 GMT